Regional Weather Roundup
Issued by NWS

Home | Current Version | Previous Version | Graphics & Text | Print | Product List | Glossary On
Versions: 1 2 3 4 5 6 7 8 9 10 11 12 13 14 15 16 17 18 19 20 21 22 23 24 25 26 27 28 29 30 31 32 33 34 35 36 37 38 39 40 41 42 43 44 45 46 47 48 49 50
000
ASUS43 KBIS 301002
RWRND

NORTH DAKOTA REGIONAL WEATHER ROUNDUP
NATIONAL WEATHER SERVICE BISMARCK ND
500 AM CDT FRI SEP 30 2016

NOTE: "FAIR" INDICATES FEW OR NO CLOUDS BELOW 12,000 FEET WITH NO
SIGNIFICANT WEATHER AND/OR OBSTRUCTIONS TO VISIBILITY.


NDZ001>003-009>011-017-301100-
NORTHWEST NORTH DAKOTA

CITY           SKY/WX    TMP DP  RH WIND       PRES   REMARKS
WILLISTON      CLOUDY    60  44  55 SE5       30.04F
MINOT          CLOUDY    51  47  86 SE12      30.15F
MINOT AFB      CLOUDY    49  46  88 SE12      30.14F
$$

NDZ018>021-031>035-040>046-301100-
SOUTHWEST NORTH DAKOTA

CITY           SKY/WX    TMP DP  RH WIND       PRES   REMARKS
BISMARCK       CLOUDY    52  46  80 SE9       30.18F
DICKINSON      CLOUDY    55  43  63 SE22G29   30.06F
GARRISON         N/A     53  47  79 SE10      30.15F
HETTINGER ARPT CLOUDY    56  42  59 SE10      30.12F
$$

NDZ004>008-012>016-024-026-027-054-301100-
NORTHEAST NORTH DAKOTA

CITY           SKY/WX    TMP DP  RH WIND       PRES   REMARKS
GRAND FORKS    CLEAR     44  41  89 SE5       30.33F
GRND FRKS AFB  CLEAR     43  41  93 S3        30.33F
DEVILS LAKE    PTCLDY    50  47  89 SE16      30.29S
$$

NDZ022-023-025-028>030-036>039-047>053-301100-
SOUTHEAST NORTH DAKOTA

CITY           SKY/WX    TMP DP  RH WIND       PRES   REMARKS
FARGO          CLEAR     51  47  86 SE10      30.33F
JAMESTOWN      CLEAR     44  42  93 SE6       30.28F
$$





USA.gov is the U.S. government's official web portal to all federal, state and local government web resources and services.